Overview Statistics Trail Chart Weather Telemetry Raw packets
 

This is the latest recevied weather packets stored in our database for station/object SP9MUF-14. If no packets are shown the sender has not sent any weather packets the latest 10 day(s).

<< 32 33 34 35 36 37 38 >>
Time Temp. Humidity Pressure Rain* Wind** Luminosity Snow
1787998769 18.89° C 81% 1015.9 hPa 0 mm - 281 W/m² -
1787998467 18.89° C 82% 1016 hPa 0 mm - 166 W/m² -
1787998165 18.89° C 81% 1016 hPa 0 mm - 136 W/m² -
1787997863 17.78° C 84% 1016.1 hPa 0 mm - 233 W/m² -
1787997561 17.78° C 86% 1016.2 hPa 0 mm - 762 W/m² -
1787997259 17.78° C 87% 1015.7 hPa 0 mm - 286 W/m² -
1787996957 17.78° C 88% 1016.2 hPa 0 mm - 189 W/m² -
1787996655 17.78° C 88% 1016.2 hPa 0 mm - 197 W/m² -
1787996352 16.67° C 90% 1016.1 hPa 0 mm - 177 W/m² -
1787996051 16.67° C 90% 1016.1 hPa 0 mm - 155 W/m² -
1787995748 16.67° C 89% 1016.1 hPa 0 mm - 105 W/m² -
1787995446 16.67° C 90% 1016 hPa 0 mm - 194 W/m² -
1787995144 16.67° C 91% 1016 hPa 0 mm - 199 W/m² -
1787994842 16.67° C 92% 1015.9 hPa 0 mm - 136 W/m² -
1787994540 16.67° C 92% 1015.9 hPa 0 mm - 103 W/m² -
1787994238 16.67° C 92% 1016 hPa 0 mm - 92 W/m² -
1787993936 16.67° C 93% 1015.8 hPa 0 mm - 126 W/m² -
1787993633 16.67° C 93% 1015.8 hPa 0 mm - 100 W/m² -
1787993331 16.67° C 93% 1015.7 hPa 0 mm - 91 W/m² -
1787993029 16.67° C 93% 1015.6 hPa 0 mm - 55 W/m² -
1787992727 16.67° C 93% 1015.5 hPa 0 mm - 49 W/m² -
1787992425 16.67° C 92% 1015.4 hPa 0 mm - 53 W/m² -
1787992123 16.67° C 91% 1015.3 hPa 0 mm - 66 W/m² -
1787991519 16.67° C 90% 1015.1 hPa 0 mm - 31 W/m² -
1787991217 17.78° C 90% 1015 hPa 0 mm - 39 W/m² -

* Rain latest hour (hover to see other rain measurements)
** Current wind speed in m/s (hover to see current wind gust speed)